When you browse on this site, cookies collect data to enhance your experience and personalize the content and advertising you see.
Visit our Privacy Policy to learn more. By continuing to use the site, you agree to this use of cookies and data.

Tiempo cada hora Narón

Hoy, 18 Septiembre, Viernes

Tiempo Temperatura Precipitaciones Viento Presión Humedad
00:00 +19°C° 0.5 mm 1 mps 753 mmHg 97%
01:00 +19°C° 0.5 mm 1 mps 753 mmHg 97%
02:00 +19°C° 0.5 mm 1 mps 752 mmHg 97%
03:00 +19°C° 0.5 mm 1 mps 752 mmHg 97%
04:00 +17°C° 0.5 mm 2 mps 752 mmHg 97%
05:00 +17°C° 0.5 mm 2 mps 752 mmHg 97%
06:00 +18°C° 0.3 mm 2 mps 752 mmHg 94%
07:00 +19°C° 0.3 mm 2 mps 753 mmHg 91%
08:00 +20°C° 0.3 mm 2 mps 753 mmHg 87%
09:00 +23°C° 0.3 mm 2 mps 753 mmHg 79%
10:00 +24°C° 0.3 mm 2 mps 753 mmHg 70%
11:00 +25°C° 0.3 mm 1 mps 754 mmHg 61%
12:00 +26°C° 0 mm 2 mps 753 mmHg 56%
13:00 +26°C° 0 mm 2 mps 753 mmHg 51%
14:00 +27°C° 0 mm 2 mps 753 mmHg 46%
15:00 +25°C° 0.1 mm 2 mps 753 mmHg 60%
16:00 +23°C° 0.1 mm 2 mps 753 mmHg 73%
17:00 +20°C° 0.1 mm 2 mps 753 mmHg 86%
18:00 +19°C° 0 mm 2 mps 753 mmHg 90%
19:00 +18°C° 0 mm 3 mps 754 mmHg 93%
20:00 +18°C° 0 mm 3 mps 754 mmHg 96%
21:00 +17°C° 0 mm 3 mps 754 mmHg 96%
22:00 +17°C° 0 mm 2 mps 754 mmHg 95%
23:00 +17°C° 0 mm 2 mps 754 mmHg 95%

Mañana, 19 Septiembre, Sábado

Tiempo Temperatura Precipitaciones Viento Presión Humedad
00:00 +17°C° 0 mm 2 mps 753 mmHg 94%
01:00 +17°C° 0 mm 2 mps 753 mmHg 94%
02:00 +17°C° 0 mm 2 mps 753 mmHg 93%
03:00 +17°C° 0 mm 2 mps 754 mmHg 92%
04:00 +17°C° 0 mm 2 mps 754 mmHg 91%
05:00 +17°C° 0 mm 2 mps 754 mmHg 90%
06:00 +18°C° 0 mm 2 mps 755 mmHg 86%
07:00 +19°C° 0 mm 3 mps 755 mmHg 82%
08:00 +20°C° 0 mm 3 mps 756 mmHg 79%
09:00 +21°C° 0 mm 3 mps 756 mmHg 73%
10:00 +22°C° 0 mm 3 mps 756 mmHg 68%
11:00 +24°C° 0 mm 2 mps 756 mmHg 63%
12:00 +24°C° 0.2 mm 2 mps 756 mmHg 66%
13:00 +24°C° 0.2 mm 2 mps 756 mmHg 69%
14:00 +24°C° 0.2 mm 3 mps 756 mmHg 72%
15:00 +23°C° 0.1 mm 2 mps 756 mmHg 78%
16:00 +20°C° 0.1 mm 2 mps 756 mmHg 84%
17:00 +19°C° 0.1 mm 2 mps 757 mmHg 90%
18:00 +19°C° 0.2 mm 2 mps 757 mmHg 91%
19:00 +18°C° 0.2 mm 2 mps 757 mmHg 93%
20:00 +18°C° 0.2 mm 2 mps 758 mmHg 94%
21:00 +18°C° 0.4 mm 2 mps 758 mmHg 95%
22:00 +18°C° 0.4 mm 2 mps 758 mmHg 95%
23:00 +17°C° 0.4 mm 2 mps 758 mmHg 95%

Pasado mañana, 20 Septiembre, Domingo

Tiempo Temperatura Precipitaciones Viento Presión Humedad
00:00 +17°C° 0.1 mm 2 mps 758 mmHg 96%
01:00 +17°C° 0.1 mm 2 mps 758 mmHg 96%
02:00 +17°C° 0.1 mm 2 mps 757 mmHg 97%
03:00 +16°C° 0 mm 2 mps 758 mmHg 97%
04:00 +16°C° 0 mm 3 mps 758 mmHg 97%
05:00 +16°C° 0 mm 3 mps 758 mmHg 98%
06:00 +18°C° 0 mm 3 mps 758 mmHg 92%
07:00 +19°C° 0 mm 2 mps 758 mmHg 87%
08:00 +21°C° 0 mm 2 mps 758 mmHg 82%
09:00 +23°C° 0 mm 2 mps 758 mmHg 72%
10:00 +25°C° 0 mm 2 mps 758 mmHg 62%
11:00 +26°C° 0 mm 2 mps 757 mmHg 52%
12:00 +25°C° 0.5 mm 2 mps 757 mmHg 61%
13:00 +24°C° 0.5 mm 2 mps 757 mmHg 69%
14:00 +23°C° 0.5 mm 2 mps 757 mmHg 78%
15:00 +23°C° 0.4 mm 2 mps 757 mmHg 82%
16:00 +21°C° 0.4 mm 2 mps 757 mmHg 86%
17:00 +20°C° 0.4 mm 3 mps 757 mmHg 90%
18:00 +19°C° 0 mm 3 mps 757 mmHg 92%
19:00 +18°C° 0 mm 3 mps 757 mmHg 93%
20:00 +17°C° 0 mm 3 mps 758 mmHg 95%
21:00 +17°C° 0 mm 3 mps 757 mmHg 95%
22:00 +17°C° 0 mm 3 mps 757 mmHg 95%
23:00 +16°C° 0 mm 2 mps 757 mmHg 95%

21 Septiembre, Lunes

Tiempo Temperatura Precipitaciones Viento Presión Humedad
00:00 +16°C° 0 mm 2 mps 757 mmHg 94%
01:00 +16°C° 0 mm 2 mps 757 mmHg 94%
02:00 +16°C° 0 mm 2 mps 757 mmHg 93%
03:00 +16°C° 0 mm 2 mps 757 mmHg 92%
04:00 +16°C° 0 mm 1 mps 757 mmHg 91%
05:00 +16°C° 0 mm 1 mps 757 mmHg 90%
06:00 +19°C° 0 mm 1 mps 757 mmHg 86%
07:00 +20°C° 0 mm 1 mps 758 mmHg 82%
08:00 +21°C° 0 mm 1 mps 758 mmHg 78%
09:00 +22°C° 0 mm 1 mps 758 mmHg 72%
10:00 +24°C° 0 mm 1 mps 758 mmHg 66%
11:00 +25°C° 0 mm 1 mps 758 mmHg 60%
12:00 +25°C° 0.1 mm 2 mps 758 mmHg 60%
13:00 +25°C° 0.1 mm 3 mps 757 mmHg 61%
14:00 +25°C° 0.1 mm 4 mps 757 mmHg 61%
15:00 +23°C° 0.1 mm 4 mps 757 mmHg 70%
16:00 +21°C° 0.1 mm 4 mps 757 mmHg 79%
17:00 +20°C° 0.1 mm 4 mps 757 mmHg 89%
18:00 +19°C° 0 mm 4 mps 758 mmHg 92%
19:00 +18°C° 0 mm 3 mps 758 mmHg 95%
20:00 +17°C° 0 mm 3 mps 759 mmHg 98%
21:00 +17°C° 0 mm 3 mps 758 mmHg 98%
22:00 +17°C° 0 mm 3 mps 758 mmHg 98%
23:00 +17°C° 0 mm 2 mps 758 mmHg 98%

22 Septiembre, Martes

Tiempo Temperatura Precipitaciones Viento Presión Humedad
00:00 +17°C° 0 mm 2 mps 758 mmHg 98%
01:00 +17°C° 0 mm 2 mps 758 mmHg 98%
02:00 +17°C° 0 mm 2 mps 758 mmHg 98%
03:00 +17°C° 0 mm 2 mps 758 mmHg 97%
04:00 +18°C° 0 mm 1 mps 758 mmHg 97%
05:00 +19°C° 0 mm 1 mps 759 mmHg 96%
06:00 +19°C° 0 mm 1 mps 759 mmHg 93%
07:00 +20°C° 0 mm 1 mps 759 mmHg 89%
08:00 +20°C° 0 mm 2 mps 759 mmHg 86%
09:00 +21°C° 0 mm 2 mps 759 mmHg 81%
10:00 +23°C° 0 mm 2 mps 759 mmHg 75%
11:00 +24°C° 0 mm 2 mps 759 mmHg 70%
12:00 +23°C° 0 mm 2 mps 759 mmHg 71%
13:00 +23°C° 0 mm 2 mps 759 mmHg 72%
14:00 +23°C° 0 mm 2 mps 758 mmHg 72%
15:00 +21°C° 0 mm 2 mps 759 mmHg 78%
16:00 +20°C° 0 mm 2 mps 759 mmHg 83%
17:00 +19°C° 0 mm 2 mps 759 mmHg 88%
18:00 +18°C° 0 mm 2 mps 759 mmHg 92%
19:00 +17°C° 0 mm 2 mps 759 mmHg 95%
20:00 +16°C° 0 mm 2 mps 759 mmHg 99%
21:00 +17°C° 0.1 mm 2 mps 759 mmHg 98%
22:00 +17°C° 0.1 mm 2 mps 759 mmHg 98%
23:00 +17°C° 0.1 mm 3 mps 759 mmHg 97%

23 Septiembre, Miércoles

Tiempo Temperatura Precipitaciones Viento Presión Humedad
00:00 +17°C° 0.1 mm 3 mps 759 mmHg 97%
01:00 +17°C° 0.1 mm 3 mps 758 mmHg 97%
02:00 +17°C° 0.1 mm 4 mps 758 mmHg 96%
03:00 +17°C° 0.2 mm 4 mps 758 mmHg 96%
04:00 +17°C° 0.2 mm 3 mps 758 mmHg 96%
05:00 +17°C° 0.2 mm 3 mps 758 mmHg 96%
06:00 +17°C° 0.2 mm 3 mps 758 mmHg 94%
07:00 +18°C° 0.2 mm 2 mps 758 mmHg 93%
08:00 +18°C° 0.2 mm 2 mps 758 mmHg 92%
09:00 +18°C° 0.2 mm 2 mps 758 mmHg 89%
10:00 +19°C° 0.2 mm 3 mps 758 mmHg 86%
11:00 +19°C° 0.2 mm 3 mps 758 mmHg 83%
12:00 +19°C° 0.1 mm 3 mps 758 mmHg 80%
13:00 +19°C° 0.1 mm 2 mps 757 mmHg 77%
14:00 +19°C° 0.1 mm 2 mps 757 mmHg 74%
15:00 +18°C° 0 mm 2 mps 757 mmHg 77%
16:00 +17°C° 0 mm 2 mps 757 mmHg 80%
17:00 +16°C° 0 mm 2 mps 757 mmHg 82%
18:00 +15°C° 0 mm 2 mps 757 mmHg 87%
19:00 +13°C° 0 mm 3 mps 757 mmHg 91%
20:00 +12°C° 0 mm 3 mps 758 mmHg 96%
21:00 +12°C° 0.1 mm 3 mps 757 mmHg 97%
22:00 +12°C° 0.1 mm 4 mps 757 mmHg 97%
23:00 +12°C° 0.1 mm 4 mps 757 mmHg 98%
Mostrar más